Regional Weather Roundup
Issued by NWS

Home | Current Version | Previous Version | Text Only | Print | Product List | Glossary Off
Versions: 1 2 3 4 5 6 7 8 9 10 11 12 13 14 15 16 17 18 19 20 21 22 23 24 25 26 27 28 29 30 31 32 33 34 35 36 37 38 39 40 41 42 43 44 45 46 47 48 49 50

000
ASUS43 KDTX 220710
RWRMI
MICHIGAN HOURLY REGIONAL WEATHER ROUNDUP
NATIONAL WEATHER SERVICE DETROIT/PONTIAC MI
200 AM EST WED FEB 22 2017

NOTE: "FAIR" INDICATES FEW OR NO CLOUDS BELOW 12,000 FEET WITH NO
SIGNIFICANT WEATHER AND/OR OBSTRUCTION TO VISIBILITY.

MIZ047>049-052>055-059>063-066>070-074>076-081>083-220800-
SOUTHEAST LOWER MICHIGAN

CITY           SKY/WX    TMP DP  RH WIND       PRES   REMARKS
ADRIAN         FOG       45  45 100 CALM      29.89F VSB 1/4
ALMA           FOG       44  43  98 S6        29.86F VSB 1/4
ANN ARBOR      FOG       39  39 100 CALM      29.88F VSB<1/4
BAD AXE        FOG       41  41 100 CALM      29.87F VSB<1/4
CARO           FOG       37  37 100 CALM      29.87S VSB<1/4
DETROIT CITY   PTCLDY    44  43  96 S3        29.90F FOG
DETROIT        CLOUDY    45  44  97 CALM      29.90F FOG
FLINT          FOG       40  39  97 CALM      29.88F VSB 1/4
GROSSE ILE     FOG       38  37  98 CALM      29.89F VSB 1/4
HILLSDALE      PTCLDY    45  45 100 S5        29.87F FOG
HOWELL         FOG       42  41  96 CALM      29.87F VSB 1/4

CITY           SKY/WX    TMP DP  RH WIND       PRES   REMARKS
JACKSON        FOG       44  43  96 CALM      29.87F VSB 3/4
LAMBERTVILLE     N/A     46  44  93 CALM      29.89F FOG
LANSING        FOG       44  41  89 CALM      29.87F VSB 1/4
LAPEER         FOG       38  38 100 CALM      29.88F VSB 1/4
MASON          CLOUDY    40  40 100 S3        29.88F
MONROE         FOG       41  41 100 CALM      29.88F VSB 1/2
MT. CLEMENS    PTCLDY    39  39 100 CALM      29.87F FOG
PONTIAC        FOG       39  36  89 CALM      29.87F VSB 1/4
PORT HOPE        N/A     39  38  96 S3        29.85F
PORT HURON     CLOUDY    37  37 100 CALM      29.90S FOG
TRI CITIES     FOG       47  47 100 S8        29.86F VSB<1/4
MIDLAND        FOG       42  41  96 CALM      29.86F VSB<1/4
TROY           PTCLDY    46  43  91 CALM      29.90F FOG
SAGINAW HB     FOG       41  39  93 CALM      29.86F VSB<1/4
$$
MIZ043>046-050>051-056>058-064>065-071>073-077>080-220800-
SOUTHWEST LOWER MICHIGAN

CITY           SKY/WX    TMP DP  RH WIND       PRES   REMARKS
BATTLE CREEK   FOG       43  43 100 SW3       29.87F VSB 1/4
BENTON HARBOR  FOG       44  42  93 CALM      29.86F VSB 1/4
BIG RAPIDS     FOG       43  42  96 CALM      29.83S VSB 1/4
COLDWATER      PTCLDY    48  48 100 SE7       29.88S FOG
FREMONT        FOG       46  46 100 CALM      29.82F VSB 1/4
HOLLAND        FOG       47  45  93 S5        29.85F VSB 1/4
GRAND RAPIDS   FOG       45  44  97 S6        29.85F VSB 1/4
IONIA          FOG       42  42  99 SE5       29.86F VSB<1/4
KALAMAZOO      FOG       48  45  89 S5        29.86F VSB 1
LUDINGTON      MOCLDY    47  46  99 S7        29.80S FOG
MARSHALL       FOG       39  39  99 CALM      29.87F VSB 1/4
MOUNT PLEASANT FOG       44  43  98 CALM      29.83F VSB 1/2
MUSKEGON       FOG       48  47  96 SE6       29.83F VSB 1/4
SOUTH HAVEN    FOG       42  42 100 CALM      29.85F VSB 1/4
$$
MIZ016>042-220800-
NORTHERN LOWER MICHIGAN

CITY           SKY/WX    TMP DP  RH WIND       PRES   REMARKS
ALPENA         MOCLDY    37  37 100 CALM      29.82F
BEAVER ISLAND  CLOUDY    44  34  69 SW7       29.79R
BELLAIRE       CLOUDY    44  39  83 CALM      29.79F
CADILLAC       PTCLDY    43  40  89 SW3       29.81S
CHARLEVOIX     CLOUDY    49  37  62 NW7       29.82R
FRANKFORT      CLOUDY    45  38  74 CALM      29.80F
GAYLORD        CLOUDY    43  36  76 SW7       29.81R
GRAYLING       CLOUDY    44  40  88 CALM      29.82F
HARBOR SPRINGS CLOUDY    48  34  59 W5        29.79F
HOUGHTON LAKE  MOCLDY    44  41  89 S6        29.81F
MANISTEE       MOCLDY    48  41  76 S5        29.79F
OSCODA         FOG       42  41  97 S8        29.82F VSB 1
PELLSTON       PTCLDY    35  31  85 CALM      29.79S
ROGERS CITY    CLOUDY    40  38  93 SW5       29.81F
TRAVERSE CITY  CLOUDY    50  37  61 W6        29.79F
$$
MIZ007>008-015-220800-
EASTERN UPPER MICHIGAN

CITY           SKY/WX    TMP DP  RH WIND       PRES   REMARKS
KINROSS        CLOUDY    35  34  96 E6        29.79F WCI  30
MACKINAC ISLAN MOCLDY    37  37 100 SE6       29.78F WCI  32
NEWBERRY       MOCLDY    39  37  92 S14       29.75F WCI  31
S. S. MARIE    FOG       35  34  96 E6        29.79F VSB 1/4 WCI  30
MUNISING         N/A     45  36  70 S8        29.71F
$$
MIZ004>006-011>014-085-220800-
CENTRAL UPPER MICHIGAN

CITY           SKY/WX    TMP DP  RH WIND       PRES   REMARKS
MANISTIQUE     CLOUDY    37  37  97 S3        29.75F FOG
ESCANABA       LGT RAIN  41  37  86 S9        29.74F
MENOMINEE      CLOUDY    48  36  63 SW9       29.74F
SAWYER-GWINN   RAIN      41  37  85 S7        29.71S
$$
MIZ001>003-009>011-084-220800-
WESTERN UPPER MICHIGAN

CITY           SKY/WX    TMP DP  RH WIND       PRES   REMARKS
IRON MOUNTAIN  CLOUDY    43  34  70 SE6       29.70S
HOUGHTON       PTCLDY    43  30  60 CALM      29.64F
COPPER HARBOR    N/A     41  32  70 SW9       29.64S
IRONWOOD       CLOUDY    48  39  71 SW3       29.67F
$$

ABBREVIATIONS USED IN REMARKS
   TC - TEMPERATURE IN CELSIUS
  WCI - WIND CHILL INDEX
   HX - HEAT INDEX
  VSB - VISIBILITY




USA.gov is the U.S. government's official web portal to all federal, state and local government web resources and services.